{"data":{"norad_id":66429,"epoch":"2026-05-25T04:43:18.317856Z","epoch_age_seconds":58185,"freshness":"FRESH","line1":"1 66429U 25259H   26145.19673979  .00013435  00000+0  49683-3 0  9997","line2":"2 66429  43.0000 202.1423 0000888 275.3538  84.7213 15.27581630 31194","mean_motion":15.2758163,"eccentricity":8.88e-5,"inclination_deg":43,"raan_deg":202.1423,"arg_perigee_deg":275.3538,"mean_anomaly_deg":84.7213,"bstar":0.00049683,"rev_number":3119,"period_min":94.266648126686,"perigee_km":482.43494234569,"apogee_km":483.65348812952,"semimajor_km":6861.1812152376,"source":"CELESTRAK","updated_at":"2026-05-25T13:38:21.208136Z"}}